This is the latest recevied weather packets stored in our database for station/object WI5KEY. If no packets are shown the sender has not sent any weather packets the latest 10 day(s).
| Time | Temp. | Humidity | Pressure | Rain* | Wind** | Luminosity | Snow |
|---|---|---|---|---|---|---|---|
| 1778121040 | 18.89° C | 81% | 1012.4 hPa | 0 mm | - | - | - |
| 1778120138 | 18.89° C | 80% | 1012.1 hPa | 0 mm | - | - | - |
| 1778119233 | 19.44° C | 80% | 1011.8 hPa | 0 mm | - | - | - |
| 1778118342 | 19.44° C | 79% | 1011.7 hPa | 0 mm | - | - | - |
| 1778117427 | 19.44° C | 78% | 1011.5 hPa | 0 mm | - | - | - |
| 1778116528 | 20° C | 78% | 1011.5 hPa | 0 mm | - | - | - |
| 1778115619 | 20.56° C | 77% | 1011 hPa | 0 mm | - | - | - |
| 1778114720 | 20.56° C | 76% | 1010.8 hPa | 0 mm | - | - | - |
| 1778113813 | 21.11° C | 75% | 1010.6 hPa | 0 mm | - | - | - |
| 1778112910 | 22.22° C | 74% | 1010.4 hPa | 0 mm | - | - | - |
| 1778112006 | 22.78° C | 74% | 1010 hPa | 0 mm | - | - | - |
| 1778111102 | 23.33° C | 73% | 1009.9 hPa | 0 mm | - | - | - |
| 1778110284 | 23.89° C | 73% | 1009.7 hPa | 0 mm | - | - | - |
| 1778109359 | 25° C | 73% | 1009.4 hPa | 0 mm | - | - | - |
| 1778108458 | 25.56° C | 72% | 1009.2 hPa | 0 mm | - | - | - |
| 1778107557 | 26.11° C | 73% | 1008.9 hPa | 0 mm | - | - | - |
| 1778106660 | 26.67° C | 74% | 1008.6 hPa | 0 mm | - | - | - |
| 1778105759 | 27.78° C | 74% | 1008.5 hPa | 0 mm | - | - | - |
| 1778104854 | 28.33° C | 74% | 1008.5 hPa | 0 mm | - | - | - |
| 1778103954 | 28.33° C | 75% | 1008.5 hPa | 0 mm | - | - | - |
| 1778103071 | 28.33° C | 75% | 1008.3 hPa | 0 mm | - | - | - |
| 1778102151 | 28.33° C | 76% | 1008.4 hPa | 0 mm | - | - | - |
| 1778101255 | 28.33° C | 76% | 1008.6 hPa | 0 mm | - | - | - |
| 1778100353 | 28.89° C | 74% | 1008.7 hPa | 0 mm | - | - | - |
| 1778099451 | 29.44° C | 73% | 1008.6 hPa | 0 mm | - | - | - |
* Rain latest hour (hover to see other rain measurements)
** Current wind speed in m/s (hover to see current wind gust speed)